EDT,Max TemperatureF,Mean TemperatureF,Min TemperatureF,Max Dew PointF,MeanDew PointF,Min DewpointF,Max Humidity, Mean Humidity, Min Humidity, Max Sea Level PressureIn, Mean Sea Level PressureIn, Min Sea Level PressureIn, Max VisibilityMiles, Mean VisibilityMiles, Min VisibilityMiles, Max Wind SpeedMPH, Mean Wind SpeedMPH, Max Gust SpeedMPH,PrecipitationIn, CloudCover, Events, WindDirDegrees
2013-7-1,77,70,64,73,70,64,100,94,83,30.15,30.05,29.99,10,6,1,22,14,26,0.01,8,Rain,215
2013-7-2,77,71,65,73,71,64,100,93,83,30.24,30.18,30.13,10,8,1,21,13,28,0.01,8,Rain,226
2013-7-3,78,72,66,72,71,66,100,92,78,30.26,30.23,30.20,10,6,0,21,15,29,0.01,5,Fog,241
2013-7-4,82,75,68,73,72,67,100,91,74,30.24,30.20,30.15,10,6,0,23,15,31,0.01,5,Fog,243
2013-7-5,84,76,68,75,71,67,100,85,70,30.19,30.15,30.09,10,9,5,23,14,30,0.00,2,,245
2013-7-6,86,78,70,75,72,68,94,83,70,30.11,30.06,29.99,10,10,7,20,11,23,0.01,1,,245
2013-7-7,89,79,69,75,72,67,100,83,58,30.04,30.00,29.94,10,8,1,18,6,25,0.00,1,Thunderstorm,245
2013-7-8,82,76,69,72,70,68,100,82,62,30.06,29.98,29.95,10,9,5,21,9,28,0.00,2,Thunderstorm,239
2013-7-9,77,72,66,70,67,66,100,92,70,30.11,30.08,30.04,10,6,0,10,5,,0.00,8,Fog-Rain,43
2013-7-10,82,76,69,73,72,68,100,91,70,30.08,29.96,29.85,10,5,0,21,8,30,0.01,8,Fog-Rain,201
2013-7-11,75,72,69,73,71,68,100,95,83,29.92,29.86,29.83,10,5,1,18,11,29,0.00,7,Rain-Thunderstorm,231
2013-7-12,71,68,66,70,66,63,100,93,78,30.18,30.06,29.91,10,6,0,18,7,21,0.00,8,Fog,41
2013-7-13,80,72,64,73,69,64,100,94,74,30.32,30.27,30.18,10,6,0,10,6,,0.01,8,Fog-Rain,98
2013-7-14,84,78,71,75,73,69,100,89,74,30.32,30.27,30.21,10,7,0,16,6,20,0.00,7,Fog-Rain,255
2013-7-15,86,78,69,73,72,68,100,79,55,30.21,30.16,30.12,10,9,2,9,4,,0.00,2,Rain,276
2013-7-16,86,78,69,73,69,65,100,74,47,30.17,30.13,30.08,10,10,3,31,6,,0.00,0,,7
2013-7-17,86,76,66,72,68,64,100,76,47,30.20,30.14,30.06,10,10,6,13,4,,0.00,0,,194
2013-7-18,87,78,70,73,72,69,100,80,57,30.05,30.01,29.98,10,9,0,14,9,18,0.00,1,Fog-Thunderstorm,204
2013-7-19,89,80,72,77,74,71,100,84,62,29.97,29.89,29.79,10,6,0,25,12,34,0.00,1,Fog,235
2013-7-20,86,79,72,73,73,68,96,84,66,29.82,29.76,29.69,10,6,2,25,15,37,0.00,2,Thunderstorm,243
2013-7-21,80,72,65,72,68,64,100,83,65,30.01,29.93,29.82,10,9,1,8,4,,0.16,5,Rain-Thunderstorm,187
2013-7-22,80,73,66,70,67,64,100,86,61,30.01,29.97,29.89,10,9,0,12,5,,0.00,5,Fog,108
2013-7-23,82,76,69,75,73,68,100,92,74,29.88,29.68,29.58,10,6,0,23,11,33,0.00,8,Fog-Thunderstorm,202
2013-7-24,86,78,69,73,70,64,100,80,55,29.91,29.71,29.60,10,10,3,17,6,21,0.35,4,Thunderstorm,259
2013-7-25,68,65,62,63,59,55,100,84,72,30.06,30.01,29.91,10,9,2,20,14,28,0.08,8,Rain,34
2013-7-26,67,64,62,66,64,61,100,97,91,30.04,29.95,29.85,10,4,1,20,12,30,1.50,7,Rain,347
2013-7-27,80,72,64,68,66,63,100,83,54,30.10,30.06,30.02,10,10,10,15,10,20,0.00,3,,230
2013-7-28,78,73,66,73,70,64,100,91,83,30.04,29.99,29.91,10,8,1,12,6,,0.04,7,Rain-Thunderstorm,161
2013-7-29,80,73,66,73,69,64,100,88,74,30.06,30.03,30.00,10,9,1,14,5,18,0.00,5,,202
2013-7-30,80,72,64,68,63,57,100,76,45,30.11,30.07,30.03,10,10,9,12,5,,0.00,2,,287
2013-7-31,78,69,60,63,60,57,94,72,47,30.13,30.10,30.08,10,10,10,13,5,,0.00,1,Rain,261